[[{"header":{"parameterUnit":"m.s-1","parameterCategory":1,"la1":30.2991,"la2":30.254,"lo1":-89.0895,"lo2":-89.0444,"dy":0.0017,"dx":0.0017,"nx":28,"ny":28,"refTime":"2024-06-02T09:00:00:Z","depth":0,"parameterNumber":2,"parameterNumberName":"U-component_of_WINDS"},"data":[0,0,0,0,0,0,0,0,0,0,0,0,0,0,0,0,0,0,0,0,0,0,0,0,0,0,0,0,0,0,0,0,0,0,0,0,0,0,0,0,0,0,0,0,0,0,0,0,0,0,0,0,0,0,0,0,0,0,0.2243,0.2242,0,0.2199,0.2198,0.2198,0.2141,0.214,0.2139,0.2138,0.2094,0.2094,0.2093,0,0,0,0,0,0,0,0,0,0,0,0,0,0.2278,0.2278,0.2243,0.2242,0.2242,0.2199,0.2198,0.2198,0.2141,0.214,0.2139,0.2138,0.2094,0.2094,0.2093,0,0,0,0,0,0,0,0,0,0,0,0,0,0.2251,0.2278,0.2243,0.2208,0.2205,0.2199,0.2198,0.2197,0.2141,0.214,0.2138,0.2137,0.2094,0.2094,0.2093,0.2118,0,0,0.2092,0.2092,0,0,0,0,0,0,0,0,0.2253,0.225,0.2214,0.2211,0.2207,0.2174,0.2194,0.2171,0.2142,0.2165,0.2138,0.2137,0.2122,0.2119,0.2114,0.2116,0.2114,0.2092,0.2092,0.2091,0.2091,0,0,0,0,0,0,0,0.2255,0.2252,0.2225,0.2213,0.2209,0.2195,0.219,0.219,0.2152,0.2163,0.2159,0.2154,0.212,0.2114,0.2112,0.2114,0.2092,0.2092,0.2091,0.2091,0.2134,0.2135,0,0,0,0,0,0,0.2262,0.2254,0.2227,0.2224,0.2227,0.2196,0.219,0.2186,0.2152,0.2145,0.2156,0.2152,0.2116,0.2113,0.2111,0.2137,0.2091,0.2091,0.2091,0.2132,0.2134,0.2135,0,0,0,0,0,0,0.2263,0.226,0.2228,0.2238,0.2232,0.2196,0.2193,0.2186,0.218,0.2146,0.2139,0.2157,0.2115,0.2111,0.2117,0.2134,0.2091,0.209,0.213,0.2133,0.2135,0.219,0,0,0,0,0,0,0.2264,0.2261,0.227,0.2238,0.2232,0.2235,0.2194,0.2186,0.218,0.2174,0.2146,0.214,0.2113,0.2118,0.2116,0.2133,0.209,0.2129,0.2131,0.2134,0.2186,0.2193,0.22,0,0,0,0,0,0.2265,0.2287,0.227,0.2267,0.2243,0.2236,0.2233,0.2202,0.2181,0.219,0.2168,0.2141,0.2133,0.2119,0.2116,0.2133,0.2127,0.2131,0.2134,0.2183,0.2192,0.22,0,0,0,0,0,0,0.2322,0.2282,0.2263,0.2275,0.226,0.2227,0.2237,0.2212,0.2202,0.2198,0.216,0.2154,0.2164,0.2149,0.2134,0.2155,0.2126,0.2129,0.2164,0.2173,0.2179,0.2182,0.209,0,0,0,0,0,0.2336,0.2334,0.2299,0.2313,0.2306,0.2273,0.2269,0.2247,0.2229,0.2222,0.22,0.2184,0.2178,0.2175,0.2167,0.2184,0.2177,0.2195,0.2202,0.2207,0.221,0.2217,0.2225,0.2146,0.2146,0.2146,0,0,0.2364,0.2342,0.2343,0.2324,0.2309,0.2308,0.2268,0.2268,0.2267,0.2222,0.2225,0.2209,0.2188,0.22,0.2203,0.2188,0.223,0.2211,0.2216,0.2216,0.2221,0.2229,0.2235,0.2148,0.2148,0.2147,0,0,0.2415,0.2399,0.2408,0.2394,0.2372,0.235,0.2352,0.2323,0.231,0.2313,0.2279,0.2277,0.2267,0.2254,0.2246,0.2292,0.2266,0.2291,0.2326,0.2333,0.2339,0.2345,0.236,0.2366,0.2294,0.2294,0.2294,0,0.2453,0.245,0.2416,0.2419,0.2411,0.237,0.2379,0.2367,0.2344,0.234,0.2323,0.2309,0.2293,0.23,0.2311,0.2306,0.2307,0.2293,0.2341,0.2346,0.2351,0.2365,0.2371,0.2297,0.2296,0.2296,0.2296,0,0.2497,0.2496,0.2506,0.2484,0.2478,0.2483,0.2451,0.2449,0.2427,0.2407,0.241,0.2388,0.2375,0.2376,0.2355,0.238,0.2371,0.2348,0.2318,0.2362,0.2375,0.238,0.2301,0.23,0.2299,0.2298,0,0,0.2582,0.2541,0.2546,0.2535,0.2507,0.2505,0.251,0.2497,0.2495,0.2481,0.2483,0.2476,0.2454,0.2445,0.2422,0.2429,0.2466,0.2405,0.2404,0.2417,0.2491,0.2508,0.2515,0.2449,0.245,0.2451,0.2493,0,0.2627,0.2631,0.2601,0.2613,0.2611,0.2572,0.2576,0.2559,0.2541,0.2536,0.2515,0.251,0.2483,0.2477,0.2482,0.246,0.248,0.2457,0.245,0.245,0.2455,0.2522,0.2539,0.2579,0.2498,0.2498,0.2499,0,0.2679,0.2667,0.2679,0.2651,0.2649,0.2652,0.2638,0.2634,0.2615,0.2601,0.2591,0.2564,0.2566,0.2538,0.254,0.2525,0.2521,0.251,0.251,0.2508,0.2477,0.252,0.2592,0.2597,0.2507,0.2506,0.2506,0,0.2738,0.2725,0.273,0.2722,0.269,0.2693,0.268,0.2659,0.2653,0.2641,0.2637,0.2625,0.2619,0.261,0.2582,0.2564,0.2587,0.2556,0.2574,0.2575,0.258,0.258,0.2651,0.2579,0.2579,0.2579,0.2579,0,0.2791,0.2799,0.2756,0.2759,0.2768,0.2734,0.2743,0.2726,0.2708,0.2707,0.2674,0.2674,0.2636,0.2632,0.261,0.2614,0.2612,0.26,0.2594,0.2602,0.2604,0.2598,0.2594,0.2581,0.258,0.258,0.258,0,0.2857,0.2829,0.2832,0.2801,0.2793,0.2801,0.2774,0.2776,0.2755,0.2755,0.2752,0.272,0.2713,0.2684,0.2671,0.2656,0.2667,0.2656,0.2674,0.2669,0.2689,0.2687,0.2758,0.2765,0.269,0.2691,0.2692,0,0.2892,0.2897,0.2867,0.2864,0.2852,0.2848,0.2841,0.2808,0.2803,0.2782,0.2786,0.2777,0.2767,0.2758,0.2734,0.2723,0.271,0.2736,0.2708,0.2717,0.2709,0.2709,0.2709,0.2742,0.2743,0.2743,0.2744,0,0.2956,0.2942,0.2934,0.2921,0.2915,0.2903,0.289,0.2889,0.2853,0.2849,0.2841,0.2834,0.282,0.2811,0.2796,0.2782,0.2757,0.2753,0.2756,0.2765,0.2774,0.2768,0.2689,0.2751,0.2751,0.275,0.275,0.2749,0.3006,0.3009,0.2988,0.2981,0.2967,0.2956,0.2955,0.2935,0.2928,0.2914,0.2895,0.289,0.2871,0.2848,0.2837,0.2832,0.2818,0.2823,0.2824,0.2826,0.283,0.2776,0.283,0.2829,0.2829,0.2829,0.2829,0,0.3068,0.3052,0.3046,0.3028,0.3022,0.2999,0.2983,0.298,0.2976,0.296,0.2951,0.2943,0.2934,0.2909,0.2897,0.2899,0.2887,0.2897,0.2896,0.2893,0.2844,0.2841,0.2906,0.2906,0.2906,0.2906,0.2906,0.2906,0.3099,0.3102,0.3086,0.3082,0.3067,0.3062,0.3054,0.3043,0.303,0.3022,0.3015,0.2999,0.2979,0.2966,0.2957,0.2949,0.2946,0.296,0.2949,0.2904,0.2896,0.2889,0.2887,0.296,0.296,0.2998,0.2998,0.2999]},{"header":{"parameterUnit":"m.s-1","parameterCategory":1,"la1":30.2991,"la2":30.254,"lo1":-89.0895,"lo2":-89.0444,"dy":0.0017,"dx":0.0017,"nx":28,"ny":28,"refTime":"2024-06-02T09:00:00:Z","depth":0,"parameterNumber":3,"parameterNumberName":"V-component_of_WINDS"},"data":[0,0,0,0,0,0,0,0,0,0,0,0,0,0,0,0,0,0,0,0,0,0,0,0,0,0,0,0,0,0,0,0,0,0,0,0,0,0,0,0,0,0,0,0,0,0,0,0,0,0,0,0,0,0,0,0,0,0,2.8159,2.8159,0,2.8195,2.8196,2.8196,2.8153,2.8151,2.815,2.8148,2.8183,2.8185,2.8188,0,0,0,0,0,0,0,0,0,0,0,0,0,2.805,2.8052,2.8159,2.8159,2.816,2.8195,2.8196,2.8196,2.8153,2.8151,2.8149,2.8147,2.8182,2.8185,2.8188,0,0,0,0,0,0,0,0,0,0,0,0,0,2.8093,2.8053,2.8159,2.8143,2.8142,2.8195,2.8196,2.8196,2.8154,2.8151,2.8149,2.8147,2.8181,2.8185,2.8188,2.8259,0,0,2.8199,2.8201,0,0,0,0,0,0,0,0,2.809,2.8097,2.8145,2.8144,2.8143,2.8167,2.817,2.8217,2.8154,2.8149,2.8148,2.8145,2.8179,2.8183,2.8195,2.826,2.8262,2.82,2.8202,2.8203,2.8204,0,0,0,0,0,0,0,2.8087,2.8095,2.8173,2.8145,2.8144,2.8133,2.8136,2.8179,2.8177,2.8149,2.8146,2.8151,2.8178,2.8192,2.8196,2.8262,2.82,2.8203,2.8205,2.8206,2.8385,2.8387,0,0,0,0,0,0,2.8087,2.8093,2.8172,2.8174,2.811,2.8137,2.8141,2.8162,2.8177,2.8177,2.8153,2.8149,2.8187,2.8191,2.8197,2.8278,2.8203,2.8207,2.8209,2.8382,2.8385,2.8388,0,0,0,0,0,0,2.8084,2.8094,2.8171,2.8133,2.8142,2.8141,2.8165,2.8164,2.8177,2.818,2.8179,2.8167,2.8185,2.8191,2.8243,2.8279,2.8208,2.8212,2.8379,2.8383,2.8387,2.8443,0,0,0,0,0,0,2.8082,2.8094,2.8121,2.8134,2.8144,2.8218,2.8168,2.8166,2.8183,2.8178,2.8192,2.8192,2.8184,2.8238,2.8247,2.8282,2.8215,2.8376,2.8381,2.8385,2.8438,2.8448,2.8457,0,0,0,0,0,2.8078,2.8135,2.8123,2.8133,2.8178,2.822,2.8225,2.8215,2.8187,2.8213,2.8215,2.8192,2.8274,2.8244,2.8253,2.829,2.8373,2.8379,2.8385,2.8433,2.8446,2.8457,0,0,0,0,0,0,2.8126,2.8137,2.8123,2.8186,2.8203,2.8212,2.8246,2.8229,2.8253,2.8247,2.8232,2.8235,2.829,2.8296,2.8262,2.8358,2.8319,2.8327,2.8352,2.8364,2.8374,2.837,2.8218,0,0,0,0,0,2.8145,2.8178,2.8185,2.8241,2.825,2.8247,2.8264,2.8255,2.8271,2.8277,2.8282,2.8298,2.8327,2.8346,2.8373,2.8439,2.844,2.8469,2.8479,2.8487,2.8493,2.8526,2.8538,2.8407,2.8407,2.8407,0,0,2.8182,2.8192,2.8214,2.8251,2.8262,2.8296,2.8253,2.8291,2.8315,2.8282,2.8331,2.8336,2.8352,2.8411,2.8437,2.8417,2.853,2.8494,2.85,2.8502,2.8533,2.8546,2.8557,2.8411,2.841,2.8409,0,0,2.8268,2.828,2.8326,2.8339,2.8357,2.8354,2.8365,2.8378,2.838,2.8429,2.8404,2.8433,2.8484,2.8496,2.8509,2.8598,2.8577,2.8608,2.8657,2.869,2.87,2.8709,2.8739,2.875,2.8614,2.8615,2.8615,0,2.8312,2.8363,2.8352,2.8392,2.8408,2.838,2.8426,2.8439,2.8464,2.8475,2.8453,2.8516,2.8525,2.8585,2.8606,2.8619,2.8629,2.8605,2.87,2.8708,2.8717,2.8745,2.8757,2.8618,2.8618,2.8617,2.8617,0,2.8416,2.8452,2.8487,2.8512,2.8533,2.8575,2.8569,2.8591,2.858,2.8579,2.8628,2.8639,2.8666,2.868,2.867,2.8738,2.8725,2.8702,2.8662,2.8733,2.8759,2.877,2.8623,2.8622,2.8621,2.862,0,0,2.8532,2.8551,2.8564,2.8574,2.8592,2.8619,2.866,2.8688,2.8705,2.8724,2.8757,2.88,2.8778,2.8793,2.8783,2.8812,2.888,2.8785,2.8785,2.88,2.8954,2.897,2.8983,2.8867,2.8869,2.8871,2.8952,0,2.8616,2.8688,2.8678,2.8746,2.8778,2.8752,2.8788,2.8802,2.8802,2.8829,2.8829,2.8859,2.8829,2.8837,2.8865,2.8866,2.891,2.886,2.8896,2.8897,2.889,2.8997,2.9015,2.9091,2.8963,2.8964,2.8966,0,2.8724,2.8746,2.8818,2.8829,2.8842,2.8874,2.8898,2.8924,2.8939,2.8937,2.8953,2.8938,2.8978,2.8939,2.8992,2.8958,2.8972,2.8975,2.8977,2.8979,2.8934,2.9,2.9115,2.9126,2.8982,2.8981,2.898,0,2.8799,2.8847,2.8895,2.8906,2.8921,2.8944,2.8951,2.8963,2.898,2.9001,2.9011,2.9037,2.905,2.9069,2.9061,2.9034,2.9115,2.9076,2.9114,2.9114,2.913,2.9129,2.9248,2.9143,2.9143,2.9143,2.9143,0,2.8893,2.8937,2.8929,2.8959,2.9007,2.8996,2.9043,2.9047,2.9059,2.9087,2.9067,2.9094,2.9083,2.9109,2.9103,2.9147,2.9154,2.9153,2.915,2.9153,2.9153,2.9161,2.9155,2.9146,2.9145,2.9145,2.9144,0,2.8984,2.8981,2.9032,2.9042,2.9045,2.908,2.9088,2.9115,2.9114,2.9151,2.9159,2.9158,2.9187,2.9182,2.9215,2.9211,2.9265,2.9257,2.926,2.9257,2.9295,2.9291,2.9421,2.9437,2.9324,2.9325,2.9326,0,2.9043,2.9076,2.909,2.9108,2.9117,2.9147,2.9163,2.9154,2.9172,2.9191,2.9215,2.9244,2.9265,2.9314,2.9315,2.934,2.9331,2.9375,2.9335,2.9336,2.9329,2.9327,2.9329,2.9383,2.9384,2.9385,2.9386,0,2.9148,2.9144,2.917,2.9195,2.9216,2.9235,2.9252,2.9268,2.9259,2.928,2.9311,2.9328,2.9361,2.9389,2.9412,2.9418,2.94,2.9399,2.9409,2.9411,2.9411,2.9409,2.928,2.9395,2.9394,2.9394,2.9393,2.9393,2.9223,2.9251,2.9264,2.9293,2.9305,2.9321,2.9347,2.9349,2.9374,2.9401,2.9394,2.9428,2.9441,2.9469,2.9479,2.9504,2.9488,2.9502,2.9506,2.9509,2.9512,2.9408,2.9509,2.9508,2.9508,2.9508,2.9508,0,2.9325,2.9332,2.9359,2.9383,2.9406,2.9388,2.9405,2.9425,2.9455,2.9469,2.9491,2.9525,2.9552,2.9555,2.958,2.96,2.9592,2.9607,2.9604,2.9605,2.9527,2.9515,2.9612,2.9612,2.9612,2.9612,2.9612,2.9612,2.938,2.9425,2.9424,2.9474,2.9481,2.9514,2.9526,2.954,2.9551,2.959,2.9612,2.9614,2.9624,2.9649,2.9672,2.9672,2.9681,2.9698,2.9695,2.9622,2.9611,2.9601,2.959,2.9701,2.9701,2.9771,2.9772,2.9772]}]]